FWI51W SOCA-LFPO

Flight info

Callsign FWI51W
Flight time N/A
Altitude 39000
Route REKIM VALOV PAPSE 27N040W 36N030W 42N020W PASAS SIVIR RIVAK KOLEK AKEMO TERPO ANG UN482 NIMER CAD
Aircraft A359/H-SDE2E3GHIJ3J4J5LM1ORWXY/LB1D1

Departure

Time 2026-04-21 23:21
Airport Cayenne – Félix Eboué Airport (SOCA)

Arrival

Time N/A
Airport Paris-Orly Airport (LFPO)
Time Latitude Longitude Altitude Speed Heading
2026-04-21 21:10 4.82177 -52.36301 35 ft 0 kts 335°
2026-04-21 23:11 4.82166 -52.36296 35 ft 4 kts 335°
2026-04-21 23:11 4.82141 -52.36285 35 ft 4 kts 336°
2026-04-21 23:11 4.82121 -52.36276 35 ft 4 kts 342°
2026-04-21 23:12 4.82104 -52.36272 35 ft 4 kts 27°
2026-04-21 23:12 4.82094 -52.36281 34 ft 4 kts 71°
2026-04-21 23:12 4.82086 -52.36306 35 ft 3 kts 66°
2026-04-21 23:12 4.82084 -52.36310 35 ft 0 kts 65°
2026-04-21 23:15 4.82084 -52.36309 35 ft 1 kts 65°
2026-04-21 23:15 4.82092 -52.36281 35 ft 7 kts 89°
2026-04-21 23:16 4.82047 -52.36244 35 ft 10 kts 155°
2026-04-21 23:16 4.81985 -52.36215 35 ft 10 kts 155°
2026-04-21 23:16 4.81955 -52.36221 35 ft 4 kts 224°
2026-04-21 23:16 4.81932 -52.36264 35 ft 10 kts 245°
2026-04-21 23:17 4.81891 -52.36351 35 ft 19 kts 245°
2026-04-21 23:17 4.81825 -52.36496 35 ft 23 kts 245°
2026-04-21 23:17 4.81757 -52.36647 34 ft 24 kts 245°
2026-04-21 23:17 4.81686 -52.36803 34 ft 25 kts 245°
2026-04-21 23:18 4.81612 -52.36965 34 ft 26 kts 245°
2026-04-21 23:18 4.81538 -52.37126 34 ft 25 kts 245°
2026-04-21 23:18 4.81469 -52.37277 33 ft 18 kts 245°
2026-04-21 23:18 4.81444 -52.37357 33 ft 11 kts 270°
2026-04-21 23:19 4.81439 -52.37411 33 ft 3 kts 225°
2026-04-21 23:19 4.81426 -52.37410 33 ft 1 kts 167°
2026-04-21 23:19 4.81421 -52.37394 33 ft 6 kts 102°
2026-04-21 23:19 4.81430 -52.37362 33 ft 0 kts 66°
2026-04-21 23:20 4.81434 -52.37353 33 ft 14 kts 66°
2026-04-21 23:21 4.81574 -52.37042 34 ft 82 kts 65°
2026-04-21 23:21 4.81899 -52.36338 35 ft 139 kts 65°
2026-04-21 23:21 4.82356 -52.35329 257 ft 167 kts 65°
2026-04-21 23:21 4.82697 -52.34252 994 ft 160 kts 78°
2026-04-21 23:22 4.82909 -52.33119 1447 ft 177 kts 79°
2026-04-21 23:22 4.83182 -52.31834 1690 ft 197 kts 77°
2026-04-21 23:22 4.83536 -52.30442 1881 ft 216 kts 73°
2026-04-21 23:22 4.83972 -52.28923 2065 ft 237 kts 71°
2026-04-21 23:23 4.84581 -52.27330 2419 ft 250 kts 65°
2026-04-21 23:23 4.85413 -52.25793 3029 ft 251 kts 58°
2026-04-21 23:23 4.86441 -52.24373 3662 ft 253 kts 51°
2026-04-21 23:23 4.87618 -52.23040 4218 ft 257 kts 52°
2026-04-21 23:24 4.88892 -52.21753 4712 ft 263 kts 35°
2026-04-21 23:24 4.90502 -52.20853 5271 ft 267 kts 26°
2026-04-21 23:24 4.92244 -52.20173 5821 ft 271 kts 20°
2026-04-21 23:24 4.94068 -52.19643 6340 ft 275 kts 16°